DECAYED

DMSP 5D-2 F13 DEB, 42313 (Decayed)

Orbit data source: Space-Track

DMSP 5D-2 F13 DEB, 42313 was space debris in SSO originally from a launch on Fri, 24 Mar 1995 UTC launched from the Air Force Western Test Range (AFWTR). Debris objects in space refer to the collection of defunct objects orbiting the Earth. Examples of debris include non-operational satellites, rocket bodies, and fragments generated from explosions, collisions, or faulty payload assembly.

Not visible in the next 10 days
Identifier
42313, 1995-015JF
Orbit
Decayed
Country
Flag of USUS
Related business
Manufacturer
Unknown
Mission
Decayed spacecraft
Bus & Motor
Unknown
Mass
Unknown
Launch date (UTC)
1995-03-24 (31 years ago)
Launch vehicle
Unknown
Launch site
Air Force Western Test Range (AFWTR)
Object type
Payload
Rocket body
Debris
Shape & HBR
Unknown shape, 0.1 m
Radar Cross Section
Small (<0.1 m²)

Expand to show TLE details & history
Last TLE update: 1 year ago

TLE from 1 year ago
0 DMSP 5D-2 F13 DEB
1 42313U 95015JF  24365.11407809  .00504919  00000-0  37700-1 0  9999
2 42313  98.5252 321.1553 0019321  23.5775 336.6328 15.00418915500168
Epoch: 2024-12-30T02:44Z
TLE epoch observation values (Epoch: 2024-12-30T02:44:16.346Z)
Latitude
-0°
Longitude
-178.95352°
Altitude
556.319 km
Speed
7.59 km/s
True Right ascension
21h 24m 37s
True Declination
0° 00' 00"
Sunlit
Object was in daylight at epoch
Visualization orbit readout
Latitude
Unknown
Longitude
Unknown
Altitude
Unknown
Speed
Unknown
Apparent Right ascension
Unknown
Apparent Declination
Unknown
Sunlit
N/A
Visualization observer readout
Local Sidereal Time
08:15:07
Azimuth
Unknown
Elevation
Unknown
Doppler factor
Unknown
Orbital elements
Apogee altitude
576.057 km
Perigee altitude
549.236 km
Semi-major axis
6,940.784 km
Eccentricity
0.00193
Inclination
98.5252°
RAAN
321.1553°
Arg. of periapsis
23.5775°
True anomaly
336.54479°
Mean anomaly
336.6328°
Eccentric anomaly
336.58882°
Mean motion
3.75345 °/min
Orbital period
95.91 mins
BSTAR
0.0377
Loading maneuver chart data...
Computing Atmospheric mass density...

Documentation

Showing up to 5 results
|